Simultaneous Nadir Overpasses (SNOs) Predictions

Prediction of SNOs near equator between AQUA and NPP Satellite Orbit:

Table of predicted SNOs near equator for the next 14.0 days since TLE Epoch: 5/9/2016
Index Date (AQUA) Time (AQUA) AQUA Lat,Lon Date (NPP) Time (NPP) NPP Lat,Lon Distance(km) Time Diff (sec)
1 05/10/2016 15:43:34 -29.99, 143.28 05/10/2016 15:33:34 -30.10, 143.06 24.52 600
2 05/10/2016 16:25:27 2.42, -42.80 05/10/2016 16:16:30 2.37, -42.97 19.70 537
3 05/10/2016 17:13:34 2.13, 125.83 05/10/2016 17:05:53 2.21, 125.39 49.64 461
4 05/10/2016 18:01:49 -6.71, -65.58 05/10/2016 17:55:23 -6.86, -66.27 78.93 386
5 05/13/2016 07:53:23 -6.23, -95.34 05/13/2016 07:43:41 -6.23, -95.36 2.84 582
6 05/13/2016 08:41:20 0.57, 73.49 05/13/2016 08:32:53 0.52, 73.21 31.27 507
7 05/13/2016 09:29:28 3.92,-117.90 05/13/2016 09:22:16 4.05,-118.43 61.09 432
8 05/13/2016 10:17:42 -8.55, 50.72 05/13/2016 10:11:46 -8.70, 49.91 90.05 356
9 05/16/2016 00:09:01 -3.42, 21.16 05/15/2016 23:59:48 -3.39, 21.04 13.12 553
10 05/16/2016 00:57:15 -1.20,-170.24 05/16/2016 00:49:18 -1.27,-170.62 43.07 477
11 05/16/2016 01:45:23 5.70, -1.62 05/16/2016 01:38:41 5.84, -2.27 72.60 402
12 05/18/2016 15:38:08 11.00, -32.23 05/18/2016 15:28:12 11.00, -32.24 1.06 596
13 05/18/2016 16:24:55 -1.60, 137.44 05/18/2016 16:16:12 -1.55, 137.22 24.86 523
14 05/18/2016 17:13:09 -3.02, -53.95 05/18/2016 17:05:42 -3.11, -54.44 54.79 447
15 05/18/2016 18:01:17 7.52, 114.66 05/18/2016 17:55:05 7.68, 113.92 83.97 372
16 05/21/2016 07:52:41 4.30, 85.11 05/21/2016 07:43:13 4.28, 85.05 6.80 568
17 05/21/2016 08:40:49 0.20,-106.28 05/21/2016 08:32:36 0.29,-106.60 36.77 493
18 05/21/2016 09:29:03 -4.83, 62.33 05/21/2016 09:22:06 -4.94, 61.74 66.46 417
19 05/21/2016 10:17:11 9.32,-129.05 05/21/2016 10:11:29 9.51,-129.90 95.23 342




NCC Satellite Simultaneous Nadir Overpasses (SNOs) Prediction Service
